Location: Newark
(33.9035°S, 18.4112°E)
Time: 08:05:58
(UTC+00:00)

STARLINK-1114 - Pass Details

Date: 26 January 2020
Orbit: 554 x 556 km, 53.0° (Epoch: 23 February)

Event Time Altitude Azimuth Distance (km) Brightness Sun altitude
Exits shadow 01:30:52 23° 213° (SSW) 1,216 5.5 -26.0°
Drops below altitude 10° 01:34:14 10° 160° (SSE) 1,861 7.2 -25.5°
Sets 01:36:52 0° 145° (SE) 2,761 8.5 -25.2°
